| time (UTC) | temp C | wind direction | speed KPH | gust KPH | rain 1hr cm | rain 24hr cm | rain mn cm | humidity % | barometer mb |
| 20260504110339 | 4 | 316 | 0.0 | 0.0 | 0.00 | 0.00 | 0.00 | 92 | 1015.8 |
| 20260504100257 | 4 | 233 | 0.0 | 0.0 | 0.00 | 0.00 | 0.00 | 93 | 1016.2 |
| 20260504081650 | 3 | 233 | 0.0 | 0.0 | 0.00 | 0.00 | 0.00 | 94 | 1016.2 |
| 20260504081146 | 3 | 233 | 0.0 | 0.0 | 0.00 | 0.00 | 0.00 | 95 | 1016.2 |
| 20260504080643 | 3 | 233 | 0.0 | 0.0 | 0.00 | 0.00 | 0.00 | 95 | 1016.5 |
| 20260504080139 | 3 | 233 | 0.0 | 0.0 | 0.00 | 0.00 | 0.00 | 94 | 1016.3 |
| 20260504070108 | 2 | 233 | 0.0 | 0.0 | 0.00 | 0.00 | 0.00 | 95 | 1016.5 |
| 20260504050456 | 2 | 233 | 0.0 | 0.0 | 0.00 | 0.00 | 0.00 | 91 | 1017.0 |
| 20260504045953 | 2 | 232 | 0.0 | 0.0 | 0.00 | 0.00 | 0.00 | 92 | 1017.1 |
| 20260504045449 | 2 | 232 | 0.0 | 0.0 | 0.00 | 0.00 | 0.00 | 92 | 1017.1 |
| 20260504044945 | 2 | 232 | 0.0 | 0.0 | 0.00 | 0.00 | 0.00 | 91 | 1017.0 |
| 20260504044443 | 2 | 232 | 0.0 | 0.0 | 0.00 | 0.00 | 0.00 | 90 | 1017.0 |
| 20260504043940 | 3 | 232 | 0.0 | 0.0 | 0.00 | 0.00 | 0.00 | 91 | 1017.0 |
| 20260504043437 | 3 | 232 | 0.0 | 0.0 | 0.00 | 0.00 | 0.00 | 90 | 1017.1 |
| 20260504042934 | 3 | 232 | 0.0 | 0.0 | 0.00 | 0.00 | 0.00 | 90 | 1017.2 |
| 20260504042431 | 3 | 232 | 0.0 | 0.0 | 0.00 | 0.00 | 0.00 | 89 | 1017.2 |
| 20260504041927 | 3 | 232 | 0.0 | 0.0 | 0.00 | 0.00 | 0.00 | 89 | 1017.1 |
| 20260504041424 | 3 | 232 | 0.0 | 0.0 | 0.00 | 0.00 | 0.00 | 89 | 1017.1 |
| 20260504040920 | 3 | 232 | 0.0 | 0.0 | 0.00 | 0.00 | 0.00 | 88 | 1017.1 |
| 20260504040418 | 3 | 232 | 0.0 | 1.6 | 0.00 | 0.00 | 0.00 | 88 | 1017.1 |
| 20260504035913 | 3 | 232 | 0.0 | 0.0 | 0.00 | 0.00 | 0.00 | 88 | 1017.1 |
| 20260504035411 | 3 | 232 | 0.0 | 0.0 | 0.00 | 0.00 | 0.00 | 89 | 1017.2 |
| 20260504034907 | 3 | 232 | 0.0 | 0.0 | 0.00 | 0.00 | 0.00 | 87 | 1017.1 |
| 20260504034405 | 3 | 232 | 0.0 | 0.0 | 0.00 | 0.00 | 0.00 | 87 | 1017.3 |
| 20260504033902 | 3 | 235 | 0.0 | 1.6 | 0.00 | 0.00 | 0.00 | 87 | 1017.0 |
| 20260504033400 | 4 | 281 | 0.0 | 0.0 | 0.00 | 0.00 | 0.00 | 87 | 1017.2 |
| 20260504032856 | 4 | 281 | 0.0 | 0.0 | 0.00 | 0.00 | 0.00 | 85 | 1017.0 |
| 20260504032353 | 4 | 281 | 0.0 | 0.0 | 0.00 | 0.00 | 0.00 | 85 | 1016.9 |
| 20260504031850 | 4 | 281 | 0.0 | 0.0 | 0.00 | 0.00 | 0.00 | 85 | 1017.0 |
| 20260504031347 | 4 | 281 | 0.0 | 0.0 | 0.00 | 0.00 | 0.00 | 85 | 1017.0 |
| 20260504030843 | 4 | 281 | 0.0 | 0.0 | 0.00 | 0.00 | 0.00 | 84 | 1017.1 |
| 20260504030341 | 4 | 281 | 0.0 | 1.6 | 0.00 | 0.00 | 0.00 | 83 | 1017.0 |
| 20260504025837 | 4 | 281 | 0.0 | 0.0 | 0.00 | 0.00 | 0.00 | 81 | 1017.1 |
| 20260504025334 | 5 | 281 | 0.0 | 1.6 | 0.00 | 0.00 | 0.00 | 81 | 1017.0 |
| 20260504024830 | 5 | 281 | 0.0 | 0.0 | 0.00 | 0.00 | 0.00 | 79 | 1017.0 |
| 20260504024327 | 5 | 281 | 0.0 | 0.0 | 0.00 | 0.00 | 0.00 | 78 | 1017.0 |
| 20260504023824 | 5 | 281 | 0.0 | 0.0 | 0.00 | 0.00 | 0.00 | 78 | 1017.1 |
| 20260504023321 | 6 | 281 | 0.0 | 0.0 | 0.00 | 0.00 | 0.00 | 78 | 1017.0 |
| 20260504022816 | 6 | 281 | 0.0 | 0.0 | 0.00 | 0.00 | 0.00 | 78 | 1017.2 |
| 20260504022313 | 6 | 281 | 0.0 | 0.0 | 0.00 | 0.00 | 0.00 | 76 | 1017.0 |
| 20260504021809 | 6 | 281 | 0.0 | 0.0 | 0.00 | 0.00 | 0.00 | 76 | 1016.8 |
| 20260504021308 | 7 | 281 | 0.0 | 0.0 | 0.00 | 0.00 | 0.00 | 75 | 1017.0 |
| 20260504020804 | 7 | 281 | 0.0 | 0.0 | 0.00 | 0.00 | 0.00 | 73 | 1017.1 |
| 20260504020301 | 7 | 297 | 0.0 | 1.6 | 0.00 | 0.00 | 0.00 | 71 | 1016.8 |
| 20260504015757 | 7 | 299 | 0.0 | 1.6 | 0.00 | 0.00 | 0.00 | 72 | 1016.7 |
| 20260504015253 | 7 | 299 | 0.0 | 1.6 | 0.00 | 0.00 | 0.00 | 74 | 1016.7 |
| 20260504014749 | 7 | 266 | 0.0 | 0.0 | 0.00 | 0.00 | 0.00 | 71 | 1016.8 |
| 20260504014246 | 7 | 266 | 0.0 | 0.0 | 0.00 | 0.00 | 0.00 | 71 | 1016.7 |
| 20260504013744 | 7 | 266 | 1.6 | 1.6 | 0.00 | 0.00 | 0.00 | 73 | 1016.7 |
| 20260504013241 | 7 | 266 | 0.0 | 0.0 | 0.00 | 0.00 | 0.00 | 68 | 1016.6 |
| 20260504012737 | 8 | 266 | 0.0 | 0.0 | 0.00 | 0.00 | 0.00 | 69 | 1016.5 |
| 20260504012235 | 8 | 303 | 0.0 | 0.0 | 0.00 | 0.00 | 0.00 | 62 | 1016.5 |
| 20260504011732 | 8 | 303 | 0.0 | 0.0 | 0.00 | 0.00 | 0.00 | 59 | 1016.4 |
| 20260504011229 | 8 | 303 | 0.0 | 0.0 | 0.00 | 0.00 | 0.00 | 68 | 1016.5 |
| 20260504010725 | 8 | 264 | 0.0 | 0.0 | 0.00 | 0.00 | 0.00 | 57 | 1016.4 |
| 20260504010220 | 8 | 265 | 0.0 | 0.0 | 0.00 | 0.00 | 0.00 | 58 | 1016.5 |
| 20260504005717 | 9 | 265 | 0.0 | 0.0 | 0.00 | 0.00 | 0.00 | 59 | 1016.6 |
| 20260504005214 | 10 | 267 | 0.0 | 1.6 | 0.00 | 0.00 | 0.00 | 51 | 1016.4 |
| 20260504004712 | 10 | 262 | 1.6 | 1.6 | 0.00 | 0.00 | 0.00 | 50 | 1016.4 |
| 20260504004209 | 10 | 293 | 0.0 | 1.6 | 0.00 | 0.00 | 0.00 | 48 | 1016.2 |
| 20260504003706 | 10 | 291 | 1.6 | 1.6 | 0.00 | 0.00 | 0.00 | 47 | 1016.2 |
| 20260504003202 | 10 | 253 | 0.0 | 0.0 | 0.00 | 0.00 | 0.00 | 49 | 1016.1 |
| 20260504002659 | 11 | 253 | 0.0 | 0.0 | 0.00 | 0.00 | 0.00 | 48 | 1016.2 |
| 20260504002156 | 11 | 253 | 0.0 | 0.0 | 0.00 | 0.00 | 0.00 | 43 | 1016.3 |
| 20260504001654 | 11 | 253 | 0.0 | 0.0 | 0.00 | 0.00 | 0.00 | 41 | 1016.1 |
| 20260504001150 | 12 | 253 | 0.0 | 0.0 | 0.00 | 0.00 | 0.00 | 40 | 1016.1 |
| 20260504000647 | 13 | 253 | 0.0 | 0.0 | 0.00 | 0.00 | 0.00 | 39 | 1016.1 |
| 20260504000145 | 13 | 279 | 0.0 | 1.6 | 0.00 | 0.00 | 0.00 | 37 | 1016.1 |
| 20260503235643 | 13 | 264 | 0.0 | 1.6 | 0.00 | 0.00 | 0.00 | 37 | 1016.0 |
| 20260503235139 | 14 | 264 | 0.0 | 3.2 | 0.00 | 0.00 | 0.00 | 35 | 1015.9 |
| 20260503234637 | 13 | 294 | 3.2 | 6.4 | 0.00 | 0.00 | 0.00 | 34 | 1016.0 |
| 20260503234135 | 14 | 250 | 1.6 | 3.2 | 0.00 | 0.00 | 0.00 | 35 | 1015.9 |
| 20260503233632 | 14 | 250 | 1.6 | 4.8 | 0.00 | 0.00 | 0.00 | 34 | 1016.1 |
| 20260503233127 | 14 | 287 | 1.6 | 1.6 | 0.00 | 0.00 | 0.00 | 34 | 1016.0 |
| 20260503232625 | 15 | 271 | 3.2 | 4.8 | 0.00 | 0.00 | 0.00 | 34 | 1016.1 |
| 20260503232122 | 15 | 303 | 4.8 | 4.8 | 0.00 | 0.00 | 0.00 | 35 | 1016.1 |
| 20260503231620 | 15 | 224 | 1.6 | 9.7 | 0.00 | 0.00 | 0.00 | 33 | 1016.1 |
| 20260503231116 | 15 | 273 | 3.2 | 6.4 | 0.00 | 0.00 | 0.00 | 34 | 1015.8 |
| 20260503230608 | 15 | 338 | 0.0 | 3.2 | 0.00 | 0.00 | 0.00 | 37 | 1016.0 |
| 20260503230105 | 15 | 211 | 3.2 | 9.7 | 0.00 | 0.00 | 0.00 | 34 | 1015.7 |
| 20260503225603 | 15 | 292 | 0.0 | 9.7 | 0.00 | 0.00 | 0.00 | 32 | 1015.8 |
| 20260503225057 | 15 | 290 | 0.0 | 3.2 | 0.00 | 0.00 | 0.00 | 34 | 1015.8 |
| 20260503224555 | 15 | 193 | 1.6 | 3.2 | 0.00 | 0.00 | 0.00 | 36 | 1015.7 |
| 20260503224053 | 15 | 229 | 4.8 | 9.7 | 0.00 | 0.00 | 0.00 | 35 | 1015.9 |
| 20260503223550 | 15 | 289 | 3.2 | 6.4 | 0.00 | 0.00 | 0.00 | 35 | 1016.0 |
| 20260503223045 | 15 | 291 | 3.2 | 4.8 | 0.00 | 0.00 | 0.00 | 33 | 1015.8 |
| 20260503222544 | 16 | 278 | 0.0 | 4.8 | 0.00 | 0.00 | 0.00 | 33 | 1016.0 |
| 20260503222041 | 16 | 297 | 3.2 | 4.8 | 0.00 | 0.00 | 0.00 | 33 | 1016.0 |
| 20260503221539 | 16 | 309 | 8.0 | 9.7 | 0.00 | 0.00 | 0.00 | 30 | 1016.0 |
| 20260503221037 | 16 | 311 | 8.0 | 12.9 | 0.00 | 0.00 | 0.00 | 30 | 1016.1 |
| 20260503220533 | 16 | 277 | 4.8 | 12.9 | 0.00 | 0.00 | 0.00 | 31 | 1016.1 |
| 20260503220030 | 16 | 300 | 8.0 | 14.5 | 0.00 | 0.00 | 0.00 | 31 | 1016.0 |
| 20260503215527 | 16 | 259 | 8.0 | 17.7 | 0.00 | 0.00 | 0.00 | 32 | 1016.1 |
| 20260503215024 | 16 | 306 | 8.0 | 17.7 | 0.00 | 0.00 | 0.00 | 29 | 1016.1 |
| 20260503214522 | 16 | 284 | 3.2 | 6.4 | 0.00 | 0.00 | 0.00 | 30 | 1016.1 |
| 20260503214018 | 16 | 297 | 11.3 | 20.9 | 0.00 | 0.00 | 0.00 | 30 | 1016.1 |
| 20260503213517 | 16 | 340 | 3.2 | 11.3 | 0.00 | 0.00 | 0.00 | 33 | 1016.1 |
| 20260503213013 | 16 | 268 | 8.0 | 12.9 | 0.00 | 0.00 | 0.00 | 30 | 1016.1 |
| 20260503212510 | 16 | 338 | 4.8 | 14.5 | 0.00 | 0.00 | 0.00 | 33 | 1015.9 |
| 20260503212008 | 16 | 234 | 6.4 | 20.9 | 0.00 | 0.00 | 0.00 | 31 | 1016.2 |
| 20260503211505 | 16 | 306 | 8.0 | 9.7 | 0.00 | 0.00 | 0.00 | 32 | 1016.2 |
| 20260503211000 | 16 | 272 | 9.7 | 12.9 | 0.00 | 0.00 | 0.00 | 31 | 1016.3 |
| 20260503210457 | 17 | 227 | 4.8 | 6.4 | 0.00 | 0.00 | 0.00 | 31 | 1016.3 |
| 20260503205957 | 16 | 292 | 6.4 | 12.9 | 0.00 | 0.00 | 0.00 | 30 | 1016.3 |
| 20260503205454 | 17 | 259 | 4.8 | 12.9 | 0.00 | 0.00 | 0.00 | 28 | 1016.3 |
| 20260503204951 | 16 | 194 | 3.2 | 6.4 | 0.00 | 0.00 | 0.00 | 33 | 1016.5 |
| 20260503204448 | 16 | 277 | 4.8 | 14.5 | 0.00 | 0.00 | 0.00 | 31 | 1016.4 |
| 20260503203945 | 16 | 261 | 3.2 | 12.9 | 0.00 | 0.00 | 0.00 | 30 | 1016.6 |
| 20260503203443 | 17 | 303 | 4.8 | 6.4 | 0.00 | 0.00 | 0.00 | 30 | 1016.5 |
| 20260503202939 | 17 | 33 | 0.0 | 6.4 | 0.00 | 0.00 | 0.00 | 32 | 1016.5 |
| 20260503202437 | 16 | 43 | 3.2 | 4.8 | 0.00 | 0.00 | 0.00 | 31 | 1016.5 |
| 20260503201936 | 16 | 292 | 9.7 | 16.1 | 0.00 | 0.00 | 0.00 | 32 | 1016.8 |
| 20260503201432 | 16 | 291 | 8.0 | 14.5 | 0.00 | 0.00 | 0.00 | 31 | 1016.6 |
| 20260503200930 | 16 | 261 | 6.4 | 12.9 | 0.00 | 0.00 | 0.00 | 31 | 1016.7 |
| 20260503200426 | 16 | 279 | 6.4 | 12.9 | 0.00 | 0.00 | 0.00 | 31 | 1016.8 |
| 20260503195923 | 16 | 236 | 11.3 | 14.5 | 0.00 | 0.00 | 0.00 | 31 | 1016.7 |
| 20260503195420 | 16 | 240 | 4.8 | 6.4 | 0.00 | 0.00 | 0.00 | 33 | 1016.9 |
| 20260503194916 | 16 | 314 | 12.9 | 20.9 | 0.00 | 0.00 | 0.00 | 38 | 1017.0 |
| 20260503194413 | 16 | 209 | 6.4 | 11.3 | 0.00 | 0.00 | 0.00 | 36 | 1017.0 |
| 20260503193909 | 16 | 279 | 0.0 | 9.7 | 0.00 | 0.00 | 0.00 | 30 | 1016.9 |
| 20260503193404 | 16 | 305 | 8.0 | 12.9 | 0.00 | 0.00 | 0.00 | 32 | 1017.1 |
| 20260503192900 | 17 | 218 | 4.8 | 6.4 | 0.00 | 0.00 | 0.00 | 36 | 1017.1 |
| 20260503192356 | 16 | 350 | 1.6 | 9.7 | 0.00 | 0.00 | 0.00 | 32 | 1017.3 |
| 20260503191853 | 16 | 207 | 4.8 | 6.4 | 0.00 | 0.00 | 0.00 | 35 | 1017.3 |
| 20260503191350 | 16 | 306 | 9.7 | 12.9 | 0.00 | 0.00 | 0.00 | 39 | 1017.4 |
| 20260503190846 | 15 | 211 | 3.2 | 12.9 | 0.00 | 0.00 | 0.00 | 32 | 1017.3 |
| 20260503190344 | 15 | 313 | 8.0 | 11.3 | 0.00 | 0.00 | 0.00 | 34 | 1017.5 |
| 20260503185841 | 15 | 250 | 4.8 | 12.9 | 0.00 | 0.00 | 0.00 | 35 | 1017.6 |
| 20260503185337 | 14 | 306 | 9.7 | 14.5 | 0.00 | 0.00 | 0.00 | 33 | 1017.6 |
| 20260503184836 | 15 | 305 | 14.5 | 22.5 | 0.00 | 0.00 | 0.00 | 31 | 1017.8 |
| 20260503184333 | 15 | 321 | 12.9 | 16.1 | 0.00 | 0.00 | 0.00 | 34 | 1017.7 |
| 20260503183829 | 15 | 252 | 4.8 | 14.5 | 0.00 | 0.00 | 0.00 | 31 | 1017.8 |
| 20260503183326 | 16 | 37 | 3.2 | 6.4 | 0.00 | 0.00 | 0.00 | 40 | 1018.0 |
| 20260503182823 | 16 | 277 | 3.2 | 6.4 | 0.00 | 0.00 | 0.00 | 36 | 1017.8 |
| 20260503182323 | 16 | 281 | 3.2 | 14.5 | 0.00 | 0.00 | 0.00 | 36 | 1017.8 |
| 20260503181819 | 15 | 322 | 1.6 | 11.3 | 0.00 | 0.00 | 0.00 | 38 | 1017.8 |
| 20260503181316 | 15 | 210 | 6.4 | 16.1 | 0.00 | 0.00 | 0.00 | 36 | 1017.9 |
| 20260503180813 | 15 | 331 | 4.8 | 6.4 | 0.00 | 0.00 | 0.00 | 31 | 1017.7 |
| 20260503180311 | 15 | 258 | 12.9 | 20.9 | 0.00 | 0.00 | 0.00 | 37 | 1017.8 |
| 20260503175807 | 15 | 303 | 11.3 | 14.5 | 0.00 | 0.00 | 0.00 | 36 | 1017.9 |
| 20260503175305 | 15 | 251 | 3.2 | 4.8 | 0.00 | 0.00 | 0.00 | 40 | 1018.0 |
| 20260503174800 | 15 | 277 | 3.2 | 9.7 | 0.00 | 0.00 | 0.00 | 35 | 1018.0 |
| 20260503174259 | 15 | 298 | 9.7 | 12.9 | 0.00 | 0.00 | 0.00 | 35 | 1018.0 |
| 20260503173754 | 15 | 309 | 6.4 | 9.7 | 0.00 | 0.00 | 0.00 | 36 | 1018.1 |
| 20260503173250 | 15 | 292 | 8.0 | 11.3 | 0.00 | 0.00 | 0.00 | 36 | 1018.1 |
| 20260503172747 | 15 | 277 | 8.0 | 16.1 | 0.00 | 0.00 | 0.00 | 35 | 1018.1 |
| 20260503172244 | 15 | 308 | 8.0 | 12.9 | 0.00 | 0.00 | 0.00 | 35 | 1018.4 |
| 20260503171741 | 14 | 258 | 6.4 | 6.4 | 0.00 | 0.00 | 0.00 | 39 | 1018.1 |
| 20260503171238 | 13 | 22 | 6.4 | 9.7 | 0.00 | 0.00 | 0.00 | 36 | 1018.5 |
| 20260503170735 | 15 | 313 | 1.6 | 4.8 | 0.00 | 0.00 | 0.00 | 34 | 1018.4 |
| 20260503170232 | 14 | 289 | 3.2 | 6.4 | 0.00 | 0.00 | 0.00 | 39 | 1018.5 |
| 20260503160153 | 12 | 262 | 1.6 | 6.4 | 0.00 | 0.00 | 0.00 | 42 | 1019.2 |
| 20260503150623 | 11 | 324 | 6.4 | 9.7 | 0.00 | 0.00 | 0.00 | 44 | 1019.8 |
| 20260503150120 | 10 | 295 | 12.9 | 17.7 | 0.00 | 0.00 | 0.00 | 44 | 1019.8 |
| 20260503131008 | 9 | 303 | 3.2 | 9.7 | 0.00 | 0.00 | 0.00 | 59 | 1020.1 |
| 20260503130505 | 8 | 260 | 3.2 | 4.8 | 0.00 | 0.00 | 0.00 | 61 | 1020.1 |